Weather History for Moses Lake, WA

Change the Weather History Date:

Saturday, January 19, 2013

  Actual Average Record
Temperature  
Mean Temperature 25 °F 30 °F  
Max Temperature 29 °F 37 °F 46 °F (1986)
Min Temperature 21 °F 24 °F 7 °F (1984)
Degree Days  
Heating Degree Days 40 35  
Month to date heating degree days 718 684  
Since 1 July heating degree days 2926 3271  
Cooling Degree Days 0 0  
Month to date cooling degree days 0 0  
Year to date cooling degree days 0 0  
Moisture  
Dew Point 19 °F    
Average Humidity 82    
Maximum Humidity 88    
Minimum Humidity 75    
Precipitation  
Precipitation 0.00 in 0.03 in 0.17 in (1983)
Month to date precipitation 0.27 0.84  
Year to date precipitation 0.27 0.84  
Sea Level Pressure  
Sea Level Pressure 30.47 in    
Wind  
Wind Speed 4 mph (North)    
Max Wind Speed 10 mph    
Max Gust Speed 13 mph    
Visibility 8 miles    
Events      
T = Trace of Precipitation, MM = Missing Value Source: NWS Daily Summary

Daily Weather History Graph

Daily Weather History Graph

Search for Another Location

Airport:

Trip Planner

Search our weather history database for the weather conditions in past years. The results will help you decide how hot, cold, wet, or windy it might be!

Date:

Astronomy

Jan. 19, 2013 Rise Set
Actual Time 7:36 AM PST 4:40 PM PST
Civil Twilight 7:02 AM PST 5:14 PM PST
Nautical Twilight 6:24 AM PST 5:52 PM PST
Astronomical Twilight 5:48 AM PST 6:28 PM PST
Moon 11:13 AM PST (1/19) 1:09 AM PST (1/19)
Length of Visible Light 10h 12m
Length of Day
9h 04m
First Quarter, 58% of the Moon is Illuminated
Jan 19
First Quarter
Jan 26
Full
Feb 3
Last Quarter
Feb 9
New
Feb 17
First Quarter

Hourly Weather History & Observations

Time (PST) Temp. Windchill Dew Point Humidity Pressure Visibility Wind Dir Wind Speed Gust Speed Precip Events Conditions
12:37 AM 21.2 °F 13.6 °F 15.8 °F 80% 30.37 in 8.0 mi North 5.8 mph - N/A   Scattered Clouds
12:52 AM 21.0 °F 16.2 °F 16.0 °F 81% 30.43 in 8.0 mi North 3.5 mph - N/A   Clear
1:52 AM 21.0 °F 16.2 °F 16.0 °F 81% 30.43 in 8.0 mi North 3.5 mph - N/A   Clear
2:52 AM 21.0 °F 16.2 °F 16.0 °F 81% 30.43 in 10.0 mi North 3.5 mph - N/A   Clear
3:52 AM 21.0 °F 16.2 °F 16.0 °F 81% 30.44 in 10.0 mi North 3.5 mph - N/A   Clear
4:52 AM 21.0 °F 12.4 °F 16.0 °F 81% 30.43 in 10.0 mi NNE 6.9 mph - N/A   Clear
5:52 AM 21.0 °F 13.4 °F 16.0 °F 81% 30.45 in 10.0 mi NE 5.8 mph - N/A   Mostly Cloudy
6:52 AM 21.9 °F 15.7 °F 16.0 °F 78% 30.45 in 10.0 mi NNE 4.6 mph - N/A   Overcast
7:52 AM 21.9 °F 13.4 °F 16.0 °F 78% 30.47 in 8.0 mi North 6.9 mph - N/A   Overcast
8:38 AM 21.2 °F 13.6 °F 17.6 °F 86% 30.43 in 8.0 mi North 5.8 mph - N/A   Overcast
8:52 AM 23.0 °F 17.0 °F 18.0 °F 81% 30.49 in 7.0 mi North 4.6 mph - N/A   Overcast
8:59 AM 23.0 °F 18.4 °F 17.6 °F 80% 30.44 in 7.0 mi North 3.5 mph - N/A   Overcast
9:52 AM 26.1 °F - 19.9 °F 78% 30.50 in 6.0 mi Calm Calm - N/A   Haze
10:52 AM 26.1 °F 19.4 °F 21.0 °F 81% 30.50 in 5.0 mi North 5.8 mph - N/A   Haze
11:52 AM 27.0 °F 21.6 °F 21.9 °F 81% 30.48 in 5.0 mi North 4.6 mph - N/A   Haze
12:52 PM 27.0 °F 19.5 °F 21.9 °F 81% 30.48 in 4.0 mi North 6.9 mph - N/A   Haze
1:52 PM 28.0 °F 20.8 °F 23.0 °F 81% 30.47 in 6.0 mi NNW 6.9 mph - N/A   Haze
2:52 PM 28.0 °F 20.0 °F 23.0 °F 81% 30.47 in 7.0 mi NNW 8.1 mph - N/A   Overcast
3:52 PM 28.0 °F 24.2 °F 21.9 °F 78% 30.48 in 8.0 mi NNE 3.5 mph - N/A   Overcast
4:52 PM 28.0 °F 21.7 °F 21.9 °F 78% 30.48 in 7.0 mi North 5.8 mph - N/A   Overcast
5:52 PM 28.0 °F 22.8 °F 21.9 °F 78% 30.48 in 8.0 mi NNE 4.6 mph - N/A   Overcast
6:52 PM 27.0 °F 23.0 °F 21.0 °F 78% 30.49 in 8.0 mi NNE 3.5 mph - N/A   Mostly Cloudy
7:52 PM 26.1 °F - 21.0 °F 81% 30.50 in 7.0 mi Calm Calm - N/A   Overcast
8:12 PM 26.6 °F - 21.2 °F 80% 30.45 in 7.0 mi Calm Calm - N/A   Scattered Clouds
8:52 PM 24.1 °F 19.7 °F 19.9 °F 84% 30.51 in 7.0 mi NNW 3.5 mph - N/A   Mostly Cloudy
9:13 PM 24.8 °F - 21.2 °F 86% 30.45 in 7.0 mi Calm Calm - N/A   Scattered Clouds
9:52 PM 25.0 °F - 21.0 °F 85% 30.52 in 8.0 mi Calm Calm - N/A   Clear
10:43 PM 26.6 °F - 19.4 °F 74% 30.47 in 8.0 mi Calm Calm - N/A   Mostly Cloudy
10:52 PM 25.0 °F - 19.9 °F 81% 30.53 in 8.0 mi Calm Calm - N/A   Mostly Cloudy
11:17 PM 24.8 °F - 19.4 °F 80% 30.48 in 7.0 mi Calm Calm - N/A   Scattered Clouds
11:29 PM 24.8 °F - 19.4 °F 80% 30.47 in 7.0 mi Calm Calm - N/A   Mostly Cloudy
11:52 PM 25.0 °F - 19.9 °F 81% 30.52 in 7.0 mi Calm Calm - N/A   Overcast